sat.trackr.live / text

‹ back to catalog

STARLINK-31877

NORAD 59675 · 2024-084X

PAYLOAD ACTIVE UNKNOWN

§ Identity

Operator
Country
US
Launch date
2024-05-06
Launch site
AFETR
Launch vehicle
Mass (kg)
RCS (m²)

Purposes: comms

External: N2YO · Heavens-Above · Gunter

§ Orbital elements

Epoch: 2026-05-25T04:53:48.316416Z

Period
94.27 min
Inclination
43.0049°
Eccentricity
0.0000565
Mean motion
15.27583922 rev/d
Perigee alt
482.6 km
Apogee alt
483.4 km
Semi-major
6,861.2 km
B*
8.3165e-5
RAAN
329.7982°
Arg perigee
328.8084°
Mean anomaly
31.2734°
Rev number
11,607

§ Raw data

STARLINK-318771 59675U 24084X   26145.20403144  .00002028  00000+0  83165-4 0  99942 59675  43.0049 329.7982 0000565 328.8084  31.2734 15.27583922116072

JSON: /api/v1/satellites/59675 · /tle

For live sub-satellite position, see the globe view (requires WebGL).

§ Visibility from observer

Set your observer location to see the next 7 days of passes ≥ 10°. The values pass through the URL so the page stays shareable.

No JS? Fill the form by hand. The geolocation button needs JavaScript.